Language: 


Des rapports , des résumés tant et plus, au choix de chacun....


Données statistiques de la station
Quotidien Rapport Avril 19, 2017 Unités:  Anglais    Métrique   les deux
« Précédent Jour
Suivant Jour »
Quotidien Hebdomadaire Mensuel Annuel Actuel
  Haut: Bas: Moyen:
Température: 55.8 °F 32.9 °F 44.2 °F
Pt de rosée: 35.6 °F 23 °F 29.3 °F
Humidité: 88 % 36 % 59 %
Vitesse du vent: 17.4 mph 0 mph 7.1 mph
Rafales: 23.3 mph - -
Vent:- - East
Pression: 30.6 in 30.4 in -
Précipitation: 0 in    
Historical Graphs
 
 
Données statistiques pour Avril 19, 2017
Heure Température Point de rosée Pression Vent Vitesse du vent Refales Humidité Pluie (taux horaire)
00:01 39.7 °F 35.6 °F 30.4 in ENE 3.1 mph 5.8 mph 84 % 0 in
00:06 39.6 °F 35.6 °F 30.4 in NNE 4 mph 5.8 mph 84 % 0 in
00:11 39.4 °F 35.6 °F 30.4 in NNE 3.8 mph 5.8 mph 84 % 0 in
00:21 39.4 °F 35.6 °F 30.4 in NE 4.3 mph 4.3 mph 85 % 0 in
00:26 39.4 °F 35.6 °F 30.4 in NNE 5.4 mph 6 mph 85 % 0 in
00:32 39.4 °F 35.6 °F 30.4 in NNE 5.4 mph 7.4 mph 86 % 0 in
00:37 39.6 °F 35.6 °F 30.4 in NE 5.6 mph 8.1 mph 86 % 0 in
00:42 39.4 °F 35.6 °F 30.4 in NNE 4.3 mph 8.1 mph 85 % 0 in
00:47 39.2 °F 35.6 °F 30.4 in North 5.4 mph 6.3 mph 85 % 0 in
00:51 39.2 °F 35.6 °F 30.4 in NNE 3.1 mph 6.7 mph 84 % 0 in
00:56 39 °F 35.6 °F 30.4 in NNE 4.9 mph 6.7 mph 85 % 0 in
01:01 38.8 °F 33.8 °F 30.4 in NNE 2.7 mph 5.6 mph 84 % 0 in
01:06 38.7 °F 33.8 °F 30.4 in NNE 3.1 mph 6 mph 84 % 0 in
01:11 38.5 °F 33.8 °F 30.4 in NE 4.3 mph 6 mph 84 % 0 in
01:16 38.5 °F 33.8 °F 30.4 in NE 4.7 mph 6.3 mph 84 % 0 in
01:21 38.3 °F 35.6 °F 30.4 in North 4.3 mph 6.3 mph 85 % 0 in
01:26 38.1 °F 33.8 °F 30.4 in NNE 5.8 mph 6.9 mph 85 % 0 in
01:31 38.1 °F 33.8 °F 30.4 in NE 5.8 mph 6.9 mph 85 % 0 in
01:36 38.1 °F 33.8 °F 30.4 in NNE 6 mph 6.5 mph 86 % 0 in
01:41 38.5 °F 35.6 °F 30.4 in NE 4.9 mph 6.5 mph 86 % 0 in
01:46 38.7 °F 35.6 °F 30.4 in NNE 6.3 mph 7.8 mph 86 % 0 in
01:52 38.7 °F 35.6 °F 30.4 in NNE 3.8 mph 7.8 mph 87 % 0 in
01:57 38.5 °F 35.6 °F 30.4 in NNE 5.4 mph 7.8 mph 86 % 0 in
02:02 38.3 °F 35.6 °F 30.4 in NNE 5.4 mph 7.2 mph 86 % 0 in
02:07 38.3 °F 35.6 °F 30.4 in NE 4 mph 6.3 mph 86 % 0 in
02:12 38.3 °F 35.6 °F 30.4 in NNE 5.4 mph 6.3 mph 86 % 0 in
02:17 38.3 °F 35.6 °F 30.4 in NNE 5.4 mph 6 mph 87 % 0 in
02:22 38.1 °F 35.6 °F 30.4 in NE 6 mph 6.5 mph 87 % 0 in
02:27 38.1 °F 35.6 °F 30.4 in NNE 7.4 mph 7.4 mph 87 % 0 in
02:32 38.1 °F 35.6 °F 30.4 in NE 5.6 mph 7.4 mph 87 % 0 in
02:37 38.3 °F 35.6 °F 30.4 in NE 6 mph 7.4 mph 87 % 0 in
02:42 38.3 °F 35.6 °F 30.4 in North 6 mph 7.8 mph 88 % 0 in
02:47 38.5 °F 35.6 °F 30.4 in NE 3.8 mph 8.1 mph 88 % 0 in
02:57 38.3 °F 35.6 °F 30.4 in NE 5.4 mph 8.1 mph 87 % 0 in
03:02 38.1 °F 35.6 °F 30.4 in NE 4.9 mph 7.4 mph 87 % 0 in
03:07 37.8 °F 35.6 °F 30.4 in NNE 3.8 mph 7.2 mph 87 % 0 in
03:12 37.6 °F 33.8 °F 30.4 in North 6 mph 6.5 mph 86 % 0 in
03:18 37.6 °F 33.8 °F 30.4 in NE 5.4 mph 6.7 mph 87 % 0 in
03:23 37.6 °F 33.8 °F 30.5 in NE 5.8 mph 7.8 mph 87 % 0 in
03:28 37.6 °F 33.8 °F 30.5 in North 5.4 mph 7.8 mph 88 % 0 in
03:33 37.6 °F 33.8 °F 30.5 in NE 5.6 mph 7.6 mph 88 % 0 in
03:38 37.6 °F 33.8 °F 30.5 in NE 6.3 mph 8.5 mph 87 % 0 in
03:43 37.6 °F 33.8 °F 30.5 in NE 7.4 mph 8.5 mph 87 % 0 in
03:48 37.6 °F 33.8 °F 30.5 in NE 7.4 mph 8.7 mph 87 % 0 in
03:53 37.6 °F 33.8 °F 30.5 in NE 5.6 mph 8.7 mph 87 % 0 in
03:58 37.6 °F 33.8 °F 30.5 in NE 5.6 mph 8.5 mph 87 % 0 in
04:03 37.4 °F 33.8 °F 30.5 in NE 4.9 mph 7.6 mph 87 % 0 in
04:08 37.2 °F 33.8 °F 30.5 in NE 5.4 mph 8.7 mph 87 % 0 in
04:13 37 °F 33.8 °F 30.5 in ENE 7.4 mph 8.7 mph 87 % 0 in
04:18 37 °F 33.8 °F 30.5 in NE 6.5 mph 7.8 mph 87 % 0 in
04:23 37.2 °F 33.8 °F 30.5 in ENE 8.7 mph 9.8 mph 87 % 0 in
04:29 37.4 °F 33.8 °F 30.5 in ENE 7.6 mph 9.8 mph 87 % 0 in
04:34 37.2 °F 33.8 °F 30.5 in NE 6.9 mph 9.8 mph 87 % 0 in
04:39 37.2 °F 33.8 °F 30.5 in NE 7.6 mph 10.3 mph 86 % 0 in
04:44 37 °F 33.8 °F 30.5 in NE 7.4 mph 10.3 mph 85 % 0 in
04:49 37 °F 33.8 °F 30.5 in ENE 6 mph 10.3 mph 85 % 0 in
04:54 36.9 °F 33.8 °F 30.5 in ENE 6.5 mph 10.3 mph 84 % 0 in
04:59 36.9 °F 33.8 °F 30.5 in ENE 6.9 mph 10.3 mph 84 % 0 in
05:04 36.9 °F 33.8 °F 30.5 in NE 6.3 mph 10.3 mph 84 % 0 in
05:09 36.7 °F 32 °F 30.5 in NE 4.3 mph 9.2 mph 83 % 0 in
05:14 36.3 °F 32 °F 30.5 in NNE 6.3 mph 7.6 mph 83 % 0 in
05:19 36.1 °F 32 °F 30.5 in NE 5.4 mph 7.6 mph 82 % 0 in
05:24 35.8 °F 32 °F 30.5 in NE 4.3 mph 6.7 mph 82 % 0 in
05:29 35.6 °F 32 °F 30.5 in NNE 4.3 mph 6.7 mph 82 % 0 in
05:34 35.4 °F 30.2 °F 30.5 in NNE 4.5 mph 6.5 mph 82 % 0 in
05:39 35.1 °F 30.2 °F 30.5 in North 3.6 mph 6.5 mph 82 % 0 in
05:44 34.9 °F 30.2 °F 30.5 in NE 2.9 mph 6.3 mph 82 % 0 in
05:45 34.7 °F 30.2 °F 30.5 in NNE 4 mph 6.3 mph 82 % 0 in
05:51 34.5 °F 30.2 °F 30.5 in NNE 4.9 mph 6 mph 83 % 0 in
05:56 34.3 °F 30.2 °F 30.5 in ENE 5.6 mph 6 mph 83 % 0 in
06:01 34.2 °F 30.2 °F 30.5 in NE 2.9 mph 5.6 mph 83 % 0 in
06:06 34 °F 30.2 °F 30.5 in NE 5.6 mph 5.6 mph 83 % 0 in
06:11 33.8 °F 30.2 °F 30.5 in NE 3.6 mph 5.6 mph 83 % 0 in
06:16 33.6 °F 30.2 °F 30.5 in NE 3.8 mph 5.6 mph 84 % 0 in
06:21 33.4 °F 30.2 °F 30.5 in NNE 3.8 mph 5.6 mph 84 % 0 in
06:26 33.4 °F 30.2 °F 30.5 in NNE 5.6 mph 6.5 mph 84 % 0 in
06:31 33.4 °F 30.2 °F 30.5 in NNE 4.3 mph 6.5 mph 84 % 0 in
06:36 33.4 °F 30.2 °F 30.5 in ENE 3.6 mph 5.6 mph 84 % 0 in
06:41 33.3 °F 30.2 °F 30.5 in NNE 4.7 mph 5.6 mph 84 % 0 in
06:46 33.3 °F 30.2 °F 30.5 in North 5.4 mph 5.6 mph 84 % 0 in
06:51 33.3 °F 30.2 °F 30.5 in North 4 mph 6 mph 84 % 0 in
06:56 32.9 °F 30.2 °F 30.5 in East 4.3 mph 6 mph 84 % 0 in
07:01 32.9 °F 30.2 °F 30.5 in NE 4.9 mph 5.8 mph 84 % 0 in
07:06 33.1 °F 30.2 °F 30.5 in NE 2.7 mph 6 mph 84 % 0 in
07:11 33.3 °F 30.2 °F 30.5 in NNE 4.3 mph 6 mph 85 % 0 in
07:16 33.3 °F 30.2 °F 30.5 in NE 3.4 mph 6 mph 85 % 0 in
07:22 33.6 °F 30.2 °F 30.5 in NNE 3.1 mph 4.5 mph 85 % 0 in
07:27 33.8 °F 30.2 °F 30.5 in North 2.2 mph 4.3 mph 84 % 0 in
07:32 34.2 °F 30.2 °F 30.5 in NNE 2.9 mph 4 mph 84 % 0 in
07:37 34.5 °F 30.2 °F 30.5 in North 2.7 mph 4 mph 85 % 0 in
07:42 35.2 °F 32 °F 30.5 in NE 3.6 mph 4.3 mph 85 % 0 in
07:47 35.6 °F 32 °F 30.5 in NNE 3.6 mph 4.3 mph 84 % 0 in
07:52 36.1 °F 32 °F 30.5 in NNE 3.4 mph 6.3 mph 83 % 0 in
07:57 36.5 °F 32 °F 30.5 in North 3.1 mph 6.3 mph 83 % 0 in
08:02 36.9 °F 32 °F 30.5 in NNE 3.6 mph 5.8 mph 81 % 0 in
08:07 37.4 °F 32 °F 30.5 in North 4 mph 6.3 mph 81 % 0 in
08:12 37.8 °F 33.8 °F 30.5 in NNE 5.6 mph 6.9 mph 80 % 0 in
08:17 38.1 °F 32 °F 30.5 in North 4.9 mph 8.1 mph 78 % 0 in
08:22 38.5 °F 32 °F 30.5 in NNE 5.6 mph 8.5 mph 78 % 0 in
08:27 39.2 °F 32 °F 30.5 in NNE 9.8 mph 9.8 mph 76 % 0 in
08:32 39.7 °F 33.8 °F 30.5 in North 6 mph 9.8 mph 76 % 0 in
08:37 39.9 °F 33.8 °F 30.5 in NE 4.3 mph 8.5 mph 75 % 0 in
08:42 40.8 °F 33.8 °F 30.5 in NE 7.8 mph 10.5 mph 73 % 0 in
08:47 41.5 °F 33.8 °F 30.5 in North 6.3 mph 10.5 mph 71 % 0 in
08:52 41.7 °F 33.8 °F 30.5 in East 6.7 mph 7.8 mph 71 % 0 in
08:57 42.3 °F 33.8 °F 30.5 in NE 6 mph 10.7 mph 68 % 0 in
09:02 43 °F 33.8 °F 30.5 in NE 6.5 mph 10.7 mph 68 % 0 in
09:07 43.3 °F 33.8 °F 30.5 in NE 7.4 mph 9.2 mph 65 % 0 in
09:13 43.5 °F 32 °F 30.5 in NE 4.9 mph 10.3 mph 63 % 0 in
09:18 44.2 °F 32 °F 30.5 in NNE 6 mph 10.5 mph 63 % 0 in
09:23 44.8 °F 32 °F 30.5 in ENE 6.3 mph 8.7 mph 61 % 0 in
09:28 45 °F 32 °F 30.5 in NE 10.5 mph 10.7 mph 59 % 0 in
09:33 45.3 °F 30.2 °F 30.5 in NE 7.8 mph 10.7 mph 57 % 0 in
09:38 45.7 °F 32 °F 30.5 in ENE 9.6 mph 10.5 mph 57 % 0 in
09:43 46.2 °F 32 °F 30.5 in NE 7.8 mph 10.5 mph 56 % 0 in
09:48 46.6 °F 32 °F 30.5 in ENE 7.6 mph 10.7 mph 54 % 0 in
09:53 46.8 °F 30.2 °F 30.5 in NE 7.8 mph 10.7 mph 53 % 0 in
09:58 46.9 °F 30.2 °F 30.5 in NE 8.9 mph 10.1 mph 52 % 0 in
10:03 47.3 °F 30.2 °F 30.5 in NE 12.8 mph 12.8 mph 51 % 0 in
10:08 47.5 °F 30.2 °F 30.5 in NE 8.1 mph 12.8 mph 50 % 0 in
10:13 47.8 °F 30.2 °F 30.5 in North 12.5 mph 12.5 mph 49 % 0 in
10:18 47.7 °F 30.2 °F 30.5 in NNE 10.1 mph 13.9 mph 48 % 0 in
10:23 47.7 °F 28.4 °F 30.5 in NE 9.6 mph 13.9 mph 47 % 0 in
10:28 48.2 °F 30.2 °F 30.5 in ENE 7.2 mph 13.2 mph 47 % 0 in
10:33 48.6 °F 30.2 °F 30.5 in East 10.5 mph 13 mph 46 % 0 in
10:38 48.6 °F 30.2 °F 30.5 in North 13.2 mph 13.2 mph 46 % 0 in
10:43 48.2 °F 28.4 °F 30.5 in ENE 8.9 mph 15.7 mph 44 % 0 in
10:48 48.4 °F 28.4 °F 30.5 in NE 8.7 mph 16.1 mph 44 % 0 in
10:53 48.7 °F 26.6 °F 30.5 in East 7.8 mph 16.1 mph 43 % 0 in
10:59 48.9 °F 26.6 °F 30.5 in NE 9.4 mph 13 mph 43 % 0 in
11:04 48.9 °F 26.6 °F 30.5 in NE 11 mph 12.8 mph 43 % 0 in
11:09 49.6 °F 28.4 °F 30.5 in ESE 8.5 mph 13.4 mph 44 % 0 in
11:14 49.8 °F 28.4 °F 30.5 in NNE 12.3 mph 14.3 mph 42 % 0 in
11:19 49.6 °F 26.6 °F 30.5 in ENE 10.3 mph 17.2 mph 42 % 0 in
11:24 50 °F 28.4 °F 30.5 in ENE 9.8 mph 17.2 mph 42 % 0 in
11:29 50.4 °F 28.4 °F 30.5 in East 13.2 mph 15.4 mph 42 % 0 in
11:34 50.4 °F 28.4 °F 30.5 in NE 10.1 mph 13.2 mph 42 % 0 in
11:39 50 °F 26.6 °F 30.5 in NNE 10.5 mph 17.4 mph 41 % 0 in
11:44 50.2 °F 26.6 °F 30.5 in ENE 12.1 mph 17.4 mph 41 % 0 in
11:49 50.7 °F 26.6 °F 30.5 in NE 10.1 mph 15.9 mph 40 % 0 in
11:54 50.5 °F 26.6 °F 30.5 in NE 8.1 mph 14.5 mph 40 % 0 in
11:59 50.9 °F 28.4 °F 30.5 in ENE 13.2 mph 17.7 mph 40 % 0 in
12:04 50.9 °F 28.4 °F 30.5 in NE 12.3 mph 17.7 mph 40 % 0 in
12:09 51.4 °F 28.4 °F 30.5 in ENE 10.3 mph 14.5 mph 40 % 0 in
12:14 51.4 °F 28.4 °F 30.5 in NNE 8.7 mph 17.4 mph 40 % 0 in
12:19 51.6 °F 28.4 °F 30.6 in NNE 12.3 mph 17.4 mph 39 % 0 in
12:24 51.4 °F 26.6 °F 30.6 in NE 10.3 mph 16.1 mph 39 % 0 in
12:29 52 °F 28.4 °F 30.6 in NE 8.1 mph 16.1 mph 39 % 0 in
12:34 52.2 °F 28.4 °F 30.6 in NNE 8.7 mph 15.4 mph 39 % 0 in
12:39 52.2 °F 28.4 °F 30.6 in East 10.7 mph 17.2 mph 39 % 0 in
12:44 52 °F 28.4 °F 30.6 in NE 11 mph 17.2 mph 39 % 0 in
12:49 52 °F 28.4 °F 30.6 in NNE 10.3 mph 15.4 mph 39 % 0 in
12:54 52 °F 28.4 °F 30.6 in ENE 13.4 mph 16.3 mph 39 % 0 in
12:59 52 °F 26.6 °F 30.6 in NE 8.7 mph 19.9 mph 38 % 0 in
13:04 52.3 °F 26.6 °F 30.6 in NE 16.1 mph 19.9 mph 38 % 0 in
13:09 52.3 °F 26.6 °F 30.6 in NE 9.8 mph 17 mph 38 % 0 in
13:14 52.9 °F 28.4 °F 30.5 in ENE 9.8 mph 17 mph 38 % 0 in
13:19 52.9 °F 28.4 °F 30.5 in North 8.9 mph 17.7 mph 38 % 0 in
13:24 52.9 °F 28.4 °F 30.5 in ENE 17.4 mph 18.6 mph 38 % 0 in
13:29 53.1 °F 28.4 °F 30.5 in NE 15.9 mph 21.9 mph 38 % 0 in
13:34 52.9 °F 26.6 °F 30.5 in NNE 11.2 mph 21.9 mph 37 % 0 in
13:39 53.4 °F 28.4 °F 30.5 in ENE 12.3 mph 13.2 mph 38 % 0 in
13:44 53.4 °F 28.4 °F 30.5 in NE 12.8 mph 16.6 mph 38 % 0 in
13:49 52.7 °F 28.4 °F 30.5 in NNE 10.1 mph 17.7 mph 38 % 0 in
13:54 53.2 °F 26.6 °F 30.5 in NNE 9.8 mph 17.7 mph 37 % 0 in
14:00 53.8 °F 28.4 °F 30.5 in NE 8.7 mph 15.2 mph 37 % 0 in
14:05 52.9 °F 28.4 °F 30.5 in ENE 17.2 mph 17.2 mph 38 % 0 in
14:10 52.5 °F 26.6 °F 30.5 in NE 17.4 mph 20.8 mph 38 % 0 in
14:15 53.6 °F 28.4 °F 30.5 in North 9.8 mph 20.8 mph 37 % 0 in
14:20 53.6 °F 28.4 °F 30.5 in NE 13 mph 20.6 mph 37 % 0 in
14:25 54 °F 28.4 °F 30.5 in NE 10.1 mph 17.4 mph 37 % 0 in
14:30 54.9 °F 30.2 °F 30.5 in NNE 10.7 mph 17.2 mph 37 % 0 in
14:35 54.3 °F 28.4 °F 30.5 in NE 12.8 mph 17.7 mph 37 % 0 in
14:40 54.7 °F 28.4 °F 30.5 in NE 17.4 mph 17.7 mph 36 % 0 in
14:45 54.5 °F 30.2 °F 30.5 in NE 8.7 mph 17.4 mph 37 % 0 in
14:50 55 °F 30.2 °F 30.5 in ENE 15.4 mph 16.1 mph 37 % 0 in
14:55 55.4 °F 30.2 °F 30.5 in ENE 6 mph 16.1 mph 36 % 0 in
15:00 55.6 °F 30.2 °F 30.5 in NE 10.7 mph 15.9 mph 36 % 0 in
15:05 55 °F 30.2 °F 30.5 in NNE 11 mph 15.9 mph 37 % 0 in
15:10 55.2 °F 30.2 °F 30.5 in ENE 11.4 mph 14.1 mph 37 % 0 in
15:15 53.8 °F 28.4 °F 30.5 in NNE 11.4 mph 13.2 mph 36 % 0 in
15:20 55.2 °F 30.2 °F 30.5 in NE 9.8 mph 13.2 mph 37 % 0 in
15:25 54.3 °F 28.4 °F 30.5 in NE 9.2 mph 23.3 mph 36 % 0 in
15:30 55.4 °F 30.2 °F 30.5 in North 8.9 mph 23.3 mph 36 % 0 in
15:35 53.8 °F 28.4 °F 30.5 in NE 17.2 mph 17.2 mph 36 % 0 in
15:40 51.8 °F 26.6 °F 30.5 in NE 8.1 mph 17.2 mph 37 % 0 in
15:45 54.5 °F 30.2 °F 30.5 in NE 14.8 mph 15.2 mph 37 % 0 in
15:56 54.3 °F 28.4 °F 30.5 in NE 8.5 mph 16.6 mph 36 % 0 in
16:01 54.9 °F 30.2 °F 30.5 in NNE 10.1 mph 16.6 mph 37 % 0 in
16:11 55.8 °F 30.2 °F 30.5 in ENE 6.9 mph 12.3 mph 36 % 0 in
16:16 55 °F 30.2 °F 30.5 in NE 10.7 mph 17.7 mph 36 % 0 in
16:21 55.2 °F 30.2 °F 30.5 in ESE 10.5 mph 17.7 mph 37 % 0 in
16:26 53.8 °F 28.4 °F 30.5 in NNE 10.1 mph 15.4 mph 36 % 0 in
16:31 53.2 °F 26.6 °F 30.5 in NNE 8.9 mph 17.7 mph 37 % 0 in
16:36 54.1 °F 28.4 °F 30.5 in NE 17 mph 17.7 mph 36 % 0 in
16:41 54.1 °F 28.4 °F 30.5 in NNE 12.8 mph 17 mph 36 % 0 in
16:46 54.1 °F 28.4 °F 30.5 in NE 10.5 mph 15.7 mph 36 % 0 in
16:51 54.9 °F 28.4 °F 30.5 in ENE 7.4 mph 15.7 mph 36 % 0 in
16:53 54.7 °F 28.4 °F 30.5 in NE 12.8 mph 14.3 mph 36 % 0 in
16:56 54.3 °F 28.4 °F 30.5 in NE 14.5 mph 15.7 mph 36 % 0 in
17:06 53.8 °F 28.4 °F 30.5 in NE 8.1 mph 17.4 mph 36 % 0 in
17:11 54.3 °F 28.4 °F 30.5 in ENE 10.1 mph 13.4 mph 36 % 0 in
17:16 53.4 °F 28.4 °F 30.5 in NNE 7.6 mph 17.2 mph 37 % 0 in
17:21 53.6 °F 28.4 °F 30.5 in NE 10.7 mph 17.2 mph 37 % 0 in
17:31 52.9 °F 26.6 °F 30.5 in NE 12.3 mph 17.2 mph 37 % 0 in
17:37 52.9 °F 26.6 °F 30.5 in ENE 8.9 mph 19.9 mph 37 % 0 in
17:42 53.4 °F 28.4 °F 30.5 in ENE 10.1 mph 19.9 mph 37 % 0 in
17:47 53.1 °F 26.6 °F 30.5 in NE 9.2 mph 13.2 mph 37 % 0 in
17:52 52.7 °F 26.6 °F 30.5 in ENE 14.1 mph 14.1 mph 37 % 0 in
17:57 52.5 °F 26.6 °F 30.5 in NE 10.3 mph 16.1 mph 37 % 0 in
18:02 52.5 °F 26.6 °F 30.5 in NE 7.6 mph 16.1 mph 37 % 0 in
18:07 52.7 °F 26.6 °F 30.5 in ESE 7.8 mph 13 mph 37 % 0 in
18:12 52.3 °F 26.6 °F 30.5 in NE 14.8 mph 14.8 mph 37 % 0 in
18:17 52 °F 26.6 °F 30.5 in NNE 10.3 mph 14.8 mph 37 % 0 in
18:22 50.9 °F 26.6 °F 30.5 in NNE 8.1 mph 13.4 mph 37 % 0 in
18:23 50.9 °F 26.6 °F 30.5 in NE 7.6 mph 13.4 mph 37 % 0 in
18:28 50.9 °F 26.6 °F 30.5 in NE 8.1 mph 15.2 mph 37 % 0 in
18:33 51.6 °F 26.6 °F 30.5 in North 7.4 mph 15.2 mph 37 % 0 in
18:38 51.6 °F 26.6 °F 30.5 in NE 7.6 mph 13.2 mph 38 % 0 in
18:43 51.4 °F 26.6 °F 30.5 in NE 12.8 mph 14.3 mph 37 % 0 in
18:48 51.1 °F 26.6 °F 30.5 in ENE 7.6 mph 15.2 mph 37 % 0 in
18:53 50.5 °F 24.8 °F 30.5 in NE 8.7 mph 15.2 mph 37 % 0 in
18:58 50.9 °F 26.6 °F 30.5 in ENE 9.2 mph 14.3 mph 37 % 0 in
19:03 51.1 °F 26.6 °F 30.5 in ENE 7.6 mph 11 mph 38 % 0 in
19:08 50.5 °F 26.6 °F 30.5 in NE 11 mph 13.9 mph 38 % 0 in
19:13 50.2 °F 24.8 °F 30.5 in East 7.4 mph 13.9 mph 38 % 0 in
19:18 50.2 °F 24.8 °F 30.5 in NE 5.6 mph 13 mph 38 % 0 in
19:23 50.2 °F 24.8 °F 30.5 in ENE 9.6 mph 11 mph 38 % 0 in
19:28 50.2 °F 24.8 °F 30.5 in NNE 9.6 mph 11 mph 38 % 0 in
19:34 49.5 °F 24.8 °F 30.5 in NE 8.5 mph 10.7 mph 38 % 0 in
19:39 49.3 °F 24.8 °F 30.5 in NE 9.8 mph 10.7 mph 38 % 0 in
19:44 48.9 °F 24.8 °F 30.5 in NE 8.5 mph 12.5 mph 38 % 0 in
19:49 48 °F 24.8 °F 30.5 in NE 8.7 mph 12.8 mph 39 % 0 in
19:54 47.7 °F 24.8 °F 30.5 in NE 9.4 mph 12.8 mph 40 % 0 in
19:59 47.5 °F 24.8 °F 30.5 in NNE 5.4 mph 11 mph 40 % 0 in
20:04 47.1 °F 24.8 °F 30.5 in NE 8.1 mph 10.5 mph 40 % 0 in
20:09 46.8 °F 23 °F 30.5 in NE 6.3 mph 13 mph 40 % 0 in
20:15 46.6 °F 24.8 °F 30.5 in NNE 7.6 mph 13 mph 41 % 0 in
20:20 46.2 °F 23 °F 30.5 in NNE 7.8 mph 10.7 mph 41 % 0 in
20:24 46 °F 23 °F 30.5 in NE 8.1 mph 10.7 mph 42 % 0 in
20:29 45.9 °F 23 °F 30.5 in NE 6.3 mph 10.5 mph 42 % 0 in
20:34 45.5 °F 23 °F 30.5 in NNE 7.2 mph 8.7 mph 42 % 0 in
20:39 45.1 °F 23 °F 30.5 in NE 6.3 mph 8.1 mph 43 % 0 in
20:41 45.1 °F 23 °F 30.5 in NNE 5.8 mph 8.5 mph 43 % 0 in
20:46 44.6 °F 23 °F 30.5 in ENE 8.5 mph 8.5 mph 43 % 0 in
20:51 44.2 °F 24.8 °F 30.5 in NE 5.8 mph 8.5 mph 45 % 0 in
20:56 43.9 °F 24.8 °F 30.5 in NNE 5.6 mph 8.7 mph 46 % 0 in
21:01 43.7 °F 24.8 °F 30.5 in NNE 7.2 mph 8.7 mph 46 % 0 in
21:06 43 °F 23 °F 30.5 in NE 3.4 mph 7.2 mph 46 % 0 in
21:10 42.6 °F 24.8 °F 30.5 in North 6 mph 7.2 mph 47 % 0 in
21:15 42.1 °F 24.8 °F 30.5 in NNE 3.6 mph 6 mph 48 % 0 in
21:20 41.7 °F 23 °F 30.5 in North 4 mph 6 mph 48 % 0 in
21:25 41.4 °F 23 °F 30.6 in NNE 2.9 mph 4.7 mph 49 % 0 in
21:30 41 °F 23 °F 30.6 in NNE 3.6 mph 4.7 mph 49 % 0 in
21:35 40.6 °F 23 °F 30.6 in NNE 3.6 mph 5.6 mph 50 % 0 in
21:40 40.5 °F 23 °F 30.6 in NNE 3.8 mph 5.8 mph 51 % 0 in
21:45 40.1 °F 23 °F 30.6 in North 4.7 mph 5.8 mph 51 % 0 in
21:50 39.9 °F 23 °F 30.6 in Calm   5.6 mph 51 % 0 in
21:55 39.6 °F 23 °F 30.6 in Calm   4.9 mph 51 % 0 in
22:00 39.4 °F 23 °F 30.6 in North 3.6 mph 4.9 mph 52 % 0 in
22:06 39.4 °F 23 °F 30.6 in Calm   6.3 mph 53 % 0 in
22:11 39.4 °F 23 °F 30.6 in NE 3.4 mph 6.3 mph 53 % 0 in
22:16 39.4 °F 23 °F 30.6 in North 2.9 mph 5.4 mph 53 % 0 in
22:21 39 °F 24.8 °F 30.6 in NNE 2.7 mph 4.3 mph 54 % 0 in
22:26 39 °F 24.8 °F 30.5 in North 3.1 mph 4.3 mph 54 % 0 in
22:31 38.8 °F 23 °F 30.5 in NE 3.6 mph 3.8 mph 54 % 0 in
22:36 38.7 °F 23 °F 30.6 in Calm   3.6 mph 54 % 0 in
22:41 38.5 °F 23 °F 30.6 in Calm   2.9 mph 54 % 0 in
22:46 38.5 °F 23 °F 30.6 in Calm   2.7 mph 54 % 0 in
22:51 37.9 °F 23 °F 30.6 in Calm   2.7 mph 54 % 0 in
22:56 37.9 °F 23 °F 30.5 in NNE 2 mph 3.6 mph 55 % 0 in
23:01 37.9 °F 23 °F 30.5 in NNE 2.7 mph 3.6 mph 55 % 0 in
23:06 37.6 °F 23 °F 30.5 in Calm   3.4 mph 55 % 0 in
23:11 37.4 °F 23 °F 30.5 in Calm   2.7 mph 55 % 0 in
23:16 37.6 °F 23 °F 30.5 in Calm   4.7 mph 55 % 0 in
23:26 37.8 °F 23 °F 30.6 in North 2.7 mph 3.4 mph 56 % 0 in
23:31 37.6 °F 23 °F 30.6 in North 1.3 mph 3.4 mph 56 % 0 in
23:36 37 °F 23 °F 30.6 in Calm   2.7 mph 57 % 0 in
23:41 36.7 °F 23 °F 30.6 in Calm   1.6 mph 57 % 0 in
23:46 36.7 °F 23 °F 30.6 in Calm   2.7 mph 57 % 0 in
23:51 36.7 °F 23 °F 30.6 in North 2.9 mph 2.9 mph 57 % 0 in
23:56 36.7 °F 23 °F 30.5 in North 2.7 mph 2.9 mph 57 % 0 in
Le Gheer Warneton
Courtoisie de Weather Underground - 2.25 mb

Mise a jour : 18/12/2017 21:24:12
Généré par Cumulus 1.9.4 (1099)